Regional Weather Roundup
Issued by NWS Jackson, KY

Home | Current Version | Previous Version | Graphics & Text | Print | Product List | Glossary On
Versions: 1 2 3 4 5 6 7 8 9 10 11 12 13 14 15 16 17 18 19 20 21 22 23 24 25 26 27 28 29 30 31 32 33 34 35 36 37 38 39 40 41 42 43 44 45 46 47 48 49 50
000
ASUS43 KJKL 240910
RWRJKL

EAST KENTUCKY HOURLY WEATHER ROUNDUP
NATIONAL WEATHER SERVICE JACKSON KY
500 AM EDT FRI APR 24 2015

NOTE: "FAIR" INDICATES FEW OR NO CLOUDS BELOW 12,000 FEET WITH
NO SIGNIFICANT WEATHER AND/OR OBSTRUCTIONS TO VISIBILITY.

* THESE REPORTS ARE NOT UNDER NWS QUALITY CONTROL AND MAY NOT
  REPORT WEATHER SUCH AS PRECIPITATION AND FOG.

KYZ079-080-083-085-087-088-110-112-115-119-120-241000
...EASTERN KENTUCKY...

CITY           SKY/WX    TMP DP  RH WIND       PRES   REMARKS
JACKSON        CLEAR     41  21  44 CALM      30.11R
LONDON         PTCLDY    35  28  75 CALM      30.11R
SOMERSET*      CLEAR     32  32 100 CALM      30.13R
MONTICELLO*      N/A     31  31 100 CALM      30.15R
MIDDLESBORO*   PTCLDY    33  32  96 CALM      30.12R
HARLAN APT*    SUNNY     34  32  93 SE7       30.10R WCI  28
HAZARD APT*    SUNNY     34  28  80 CALM      30.11R
BLACK MTN*       N/A     32  18  55 N9          N/A  WCI  24
PIKEVILLE APT* CLEAR     37  23  56 NE7       30.09S WCI  32
BIG SANDY*     SUNNY     37  24  57 NE3       30.10S
MOREHEAD APT*  SUNNY     39  23  52 CALM      30.12S
$$

KYZ035-036-041-042-044-050-067-078-099-241000
...CENTRAL KENTUCKY...

CITY           SKY/WX    TMP DP  RH WIND       PRES   REMARKS
MT STERLING*   CLEAR     32  30  93 CALM      30.12R
FLEMING/MASON* CLEAR     36  25  64 E6        30.11F WCI  31
DANVILLE*      PTCLDY    32  28  86 CALM      30.12S
RICHMOND*      PTCLDY    36  27  69 CALM      30.11R
LEXINGTON      CLEAR     34  27  75 E5        30.11R WCI  30
FRANKFORT      CLEAR     30  26  85 CALM      30.10R
$$

KYZ091>093-OHZ055-061-077-WVZ005-015-034-035-042-241000
...SOUTHERN OHIO/WEST VIRGINIA...

CITY           SKY/WX    TMP DP  RH WIND       PRES   REMARKS
COVINGTON      CLEAR     38  25  59 SE5       30.09S WCI  34
COLUMBUS       CLEAR     29  27  92 CALM      30.11R
DAYTON         CLEAR     35  22  58 S3        30.10R
WILMINGTON     CLEAR     31  25  78 CALM      30.10S
HUNTINGTON     CLEAR     33  27  78 E5        30.10F WCI  29
CHARLESTON     CLEAR     36  26  67 CALM      30.11S
PINEVILLE*     CLEAR     35  30  83 MISG      30.12S
BECKLEY        CLEAR     35  21  56 NW8       30.05F WCI  29
BLUEFIELD      CLEAR     38  21  50 VRB3      30.03F
$$

VAZ002-007-008-TNZ017-027-036-066-071-241000
...SOUTHWEST VIRGINIA/EAST TENNESSEE...

CITY           SKY/WX    TMP DP  RH WIND       PRES   REMARKS
WISE*          CLEAR     37  16  41 N3        30.08R
JONESVILLE*    SUNNY     32  30  93 CALM      30.11S
ABINGDON*      CLEAR     38  22  52 CALM      30.07R
BRISTOL        PTCLDY    35  28  75 CALM      30.08R
KNOXVILLE      PTCLDY    40  35  83 CALM      30.08R
OAK RIDGE      MOCLDY    40  35  83 CALM      30.10S
CROSSVILLE     MOCLDY    43  24  47 NE3       30.09S
NASHVILLE      PTCLDY    44  36  73 CALM      30.10R
$$

...KEY TO REMARKS...
VSB - VISIBILITY IN MILES
WCI - WIND CHILL INDEX
HX  - HEAT INDEX

$$



USA.gov is the U.S. government's official web portal to all federal, state and local government web resources and services.